Terug naar catalogus

SEA LAUNCH DEMO

ActiefWetenschapGTO
NORAD 25661·PAYLOAD· XX

Gelanceerd Mar 28, 1999 vanaf Sea Launch Platform

Loading…

TLE

VerouderendSource: Space-Track

Epoch: Sep 14, 2026, 12:13 UTC

1 25661U 99014A   26257.50956014 -.00000128  00000-0  69088-3 0  9991
2 25661   1.2998 319.7531 7161384   4.6044 359.5904  2.23255841224104

Volg SEA LAUNCH DEMO in realtime met AllMySat

Download on the App Store